Weather reports worldwide

Advertisment
Ansbach/Katterbach, Germany (10755): temperature & dewpoint: 12.01.2020 14:00:00 - 18.01.2020 14:00:00 (CET)Ansbach/Katterbach, Germany (10755): wind speed: 12.01.2020 14:00:00 - 18.01.2020 14:00:00 (CET)Ansbach/Katterbach, Germany (10755): wind direction: 12.01.2020 14:00:00 - 18.01.2020 14:00:00 (CET)Ansbach/Katterbach, Germany (10755): reduced air pressure: 12.01.2020 14:00:00 - 18.01.2020 14:00:00 (CET)Ansbach/Katterbach, Germany (10755): visibility: 12.01.2020 14:00:00 - 18.01.2020 14:00:00 (CET)Ansbach/Katterbach, Germany (10755): precipitation: 12.01.2020 14:00:00 - 18.01.2020 14:00:00 (CET)
Date & Time tt [°C] td [°C] ff [km/h] ff [kn] dd ppp [hPa] vv [km] rr [mm]
18.01.2020 14:00:00 - - - - - - - -
18.01.2020 13:00:00 4,6 2,8 15 8 W 1028,3 10 -
18.01.2020 12:00:00 4,2 3,3 16 9 W 1028,7 10 -
18.01.2020 11:00:00 4,1 3,8 16 9 W 1028,7 10 -
18.01.2020 10:00:00 3,4 3,4 15 8 W 1028,7 10 -
18.01.2020 09:00:00 3,3 3,3 15 8 W 1028,3 10 -
18.01.2020 08:00:00 3,1 3,1 16 9 W 1028,0 10 -
18.01.2020 07:00:00 3,3 3,3 13 7 WSW 1027,6 10 -
18.01.2020 06:00:00 2,8 2,8 11 6 WSW 1027,0 10 -
18.01.2020 05:00:00 3,2 3,2 8 4 W 1026,6 10 -
18.01.2020 04:00:00 4,4 4,4 11 6 W 1025,7 10 -
18.01.2020 03:00:00 5,5 5,5 18 10 W 1024,6 10 0,0
18.01.2020 02:00:00 5,7 5,7 13 7 W 1024,1 10 0,0
18.01.2020 01:00:00 5,6 5,6 8 4 SW 1024,0 10 -
18.01.2020 00:00:00 6,1 6,1 11 6 WSW 1023,6 10 0,0
17.01.2020 23:00:00 6,0 6,0 11 6 WSW 1023,5 10 0,3
17.01.2020 22:00:00 6,2 6,2 11 6 SW 1023,3 10 -
17.01.2020 21:00:00 6,3 6,3 15 8 WSW 1023,0 10 0,0
17.01.2020 20:00:00 7,3 6,2 15 8 WSW 1022,6 10 -
17.01.2020 19:00:00 6,7 6,0 5 3 SW 1022,3 10 -
17.01.2020 18:00:00 7,0 6,3 8 4 S 1021,7 10 -
17.01.2020 17:00:00 7,2 6,5 11 6 SSE 1021,3 10 -
17.01.2020 16:00:00 8,1 5,7 8 4 S 1021,1 10 -
17.01.2020 15:00:00 9,1 5,3 9 5 S 1020,8 10 -
17.01.2020 14:00:00 8,7 5,1 8 4 SSW 1020,9 10 -
17.01.2020 13:00:00 6,9 5,8 11 6 S 1021,8 10 -
17.01.2020 12:00:00 5,1 5,0 8 4 S 1022,7 10 -
17.01.2020 11:00:00 2,9 2,9 5 3 S 1023,6 10 -
17.01.2020 10:00:00 0,7 0,7 9 5 S 1023,5 6 -
17.01.2020 09:00:00 -0,4 -0,4 8 4 S 1023,9 4,0 -
17.01.2020 08:00:00 -0,3 -0,3 8 4 SSE 1024,2 8 -
17.01.2020 07:00:00 -0,5 -0,5 8 4 SW 1024,3 6 -
17.01.2020 06:00:00 0,4 0,4 0 0 N 1024,7 10 -
17.01.2020 05:00:00 1,2 1,2 8 4 SE 1024,2 10 -
17.01.2020 04:00:00 1,1 1,1 8 4 S 1025,0 10 -
17.01.2020 03:00:00 0,7 0,7 9 5 ESE 1025,0 10 -
17.01.2020 02:00:00 3,0 3,0 9 5 ESE 1025,5 10 -
17.01.2020 01:00:00 2,3 2,3 11 6 E 1026,4 10 -
17.01.2020 00:00:00 3,2 3,1 11 6 ESE 1027,4 10 -
16.01.2020 23:00:00 2,8 2,8 8 4 ESE 1028,3 10 -
16.01.2020 22:00:00 3,0 3,0 0 0 N 1029,0 10 -
16.01.2020 21:00:00 4,4 4,4 5 3 ESE 1029,4 10 -
16.01.2020 20:00:00 4,7 4,6 8 4 SE 1029,5 10 -
16.01.2020 19:00:00 5,5 5,4 9 5 SE 1029,8 10 -
16.01.2020 18:00:00 6,9 6,0 15 8 ESE 1029,8 10 -
16.01.2020 17:00:00 8,3 6,4 9 5 E 1029,9 10 -
16.01.2020 16:00:00 10,0 6,7 11 6 E 1029,4 10 -
16.01.2020 15:00:00 11,1 6,8 8 4 ESE 1029,5 10 -
16.01.2020 14:00:00 11,0 6,7 8 4 ESE 1029,8 10 -
16.01.2020 13:00:00 10,6 6,2 8 4 SE 1030,2 10 -
16.01.2020 12:00:00 8,5 5,8 5 3 S 1031,7 10 -
16.01.2020 11:00:00 7,4 5,4 9 5 S 1031,9 10 -
16.01.2020 10:00:00 6,4 5,2 8 4 ESE 1031,9 10 -
16.01.2020 09:00:00 6,1 4,7 5 3 S 1031,5 10 -
16.01.2020 08:00:00 6,0 4,2 0 0 N 1031,2 10 -
16.01.2020 07:00:00 5,7 4,5 9 5 SSE 1030,9 10 -
16.01.2020 06:00:00 5,9 3,9 8 4 S 1030,5 10 -
16.01.2020 05:00:00 5,2 3,9 9 5 SSE 1029,8 10 -
16.01.2020 04:00:00 6,1 3,4 8 4 S 1029,3 10 -
16.01.2020 03:00:00 6,0 3,5 11 6 SSW 1028,7 10 -
16.01.2020 02:00:00 6,5 3,6 11 6 SW 1027,8 10 -
16.01.2020 01:00:00 6,2 3,0 11 6 SSW 1027,3 10 -
16.01.2020 00:00:00 5,4 2,7 13 7 S 1026,9 10 -
15.01.2020 23:00:00 4,9 2,6 16 9 S 1026,4 10 -
15.01.2020 22:00:00 5,5 2,8 16 9 S 1025,7 10 -
15.01.2020 21:00:00 5,7 2,9 13 7 S 1025,2 10 -
15.01.2020 20:00:00 5,5 3,3 18 10 S 1024,9 10 -
15.01.2020 19:00:00 5,6 3,3 13 7 S 1024,2 10 -
15.01.2020 18:00:00 6,5 3,1 9 5 SSE 1023,2 10 -
15.01.2020 17:00:00 7,4 3,1 8 4 S 1022,6 10 -
15.01.2020 16:00:00 9,0 3,6 9 5 SSE 1021,4 10 -
15.01.2020 15:00:00 10,6 1,9 9 5 S 1020,5 10 -
15.01.2020 14:00:00 10,4 1,7 9 5 S 1020,1 10 -
15.01.2020 13:00:00 9,4 1,1 9 5 SSE 1020,7 10 -
15.01.2020 12:00:00 8,0 0,7 9 5 S 1021,0 10 -
15.01.2020 11:00:00 6,4 0,5 8 4 S 1021,6 10 -
15.01.2020 10:00:00 5,4 0,2 8 4 S 1021,2 10 -
15.01.2020 09:00:00 4,0 0,2 9 5 SSE 1021,5 10 -
15.01.2020 08:00:00 3,5 -0,5 8 4 S 1021,1 10 -
15.01.2020 07:00:00 3,6 -1,0 9 5 S 1021,1 10 -
15.01.2020 06:00:00 3,7 -0,9 9 5 SSE 1020,8 10 -
15.01.2020 05:00:00 4,1 -0,3 11 6 SSE 1020,8 10 -
15.01.2020 04:00:00 4,1 0,1 11 6 SSE 1020,8 10 -
15.01.2020 03:00:00 4,8 0,7 11 6 SSE 1020,9 10 -
15.01.2020 02:00:00 5,0 0,9 11 6 S 1020,6 10 -
15.01.2020 01:00:00 5,5 1,4 13 7 S 1020,0 10 -
15.01.2020 00:00:00 5,6 1,7 16 9 SSE 1020,6 10 -
14.01.2020 23:00:00 5,4 1,5 8 4 SSE 1020,7 10 -
14.01.2020 22:00:00 6,1 1,2 11 6 S 1020,7 10 -
14.01.2020 21:00:00 6,0 1,3 15 8 S 1020,3 10 -
14.01.2020 20:00:00 6,1 1,4 13 7 SSE 1020,3 10 0,0
14.01.2020 19:00:00 6,2 1,5 15 8 S 1020,3 10 -
14.01.2020 18:00:00 6,3 1,0 9 5 S 1020,0 10 -
14.01.2020 17:00:00 6,2 1,3 13 7 SSE 1019,6 10 -
14.01.2020 16:00:00 6,5 1,8 9 5 SSE 1019,6 10 -
14.01.2020 15:00:00 7,1 1,2 16 9 S 1018,9 10 -
14.01.2020 14:00:00 7,7 1,3 13 7 S 1018,4 10 -
14.01.2020 13:00:00 7,4 -0,1 15 8 S 1018,7 10 -
14.01.2020 12:00:00 6,1 0,6 13 7 SSE 1018,9 10 -
14.01.2020 11:00:00 3,6 0,3 13 7 S 1019,5 10 -
14.01.2020 10:00:00 2,6 0,2 15 8 S 1019,7 10 -
14.01.2020 09:00:00 1,3 0,0 18 10 S 1019,1 10 -
14.01.2020 08:00:00 1,0 0,4 15 8 SSE 1018,4 10 -
14.01.2020 07:00:00 1,1 0,2 11 6 S 1018,7 10 -
14.01.2020 06:00:00 1,2 0,3 13 7 S 1018,4 10 -
14.01.2020 05:00:00 1,2 0,9 11 6 S 1018,4 10 -
14.01.2020 04:00:00 1,0 0,9 5 3 S 1019,2 10 -
14.01.2020 03:00:00 1,3 1,3 11 6 SSE 1019,2 10 -
14.01.2020 02:00:00 1,8 1,8 9 5 SSE 1019,5 10 -
14.01.2020 01:00:00 2,0 2,0 11 6 S 1019,9 10 -
14.01.2020 00:00:00 1,7 1,7 11 6 S 1020,6 10 -
13.01.2020 23:00:00 1,3 1,3 8 4 S 1020,8 10 -
13.01.2020 22:00:00 1,6 1,6 11 6 SSE 1020,8 10 -
13.01.2020 21:00:00 2,3 2,3 15 8 SSE 1021,5 10 -
13.01.2020 20:00:00 3,0 3,0 11 6 SSE 1022,5 10 0,0
13.01.2020 19:00:00 2,8 2,8 5 3 SSE 1022,8 10 -
13.01.2020 18:00:00 3,5 3,5 9 5 S 1022,6 10 -
13.01.2020 17:00:00 3,7 3,7 9 5 SSE 1022,6 9 -
13.01.2020 16:00:00 4,5 4,5 11 6 S 1022,4 10 0,0
13.01.2020 15:00:00 5,0 5,0 11 6 S 1023,1 10 -
13.01.2020 14:00:00 4,7 4,7 15 8 S 1023,4 10 -
13.01.2020 13:00:00 3,9 3,9 16 9 SSE 1024,3 8 -
13.01.2020 12:00:00 3,0 3,0 11 6 S 1025,4 6 -
13.01.2020 11:00:00 2,5 2,5 15 8 SSE 1026,3 2,4 -
13.01.2020 10:00:00 2,4 2,4 11 6 SSE 1026,6 0,4 -
13.01.2020 09:00:00 2,0 2,0 11 6 SSE 1027,0 0,6 -
13.01.2020 08:00:00 1,9 1,9 9 5 SSE 1027,5 0,6 -
13.01.2020 07:00:00 1,6 1,6 9 5 SSE 1027,9 0,4 -
13.01.2020 06:00:00 1,9 1,9 8 4 SSE 1028,2 0,6 -
13.01.2020 05:00:00 2,1 2,1 5 3 SSE 1028,5 0,8 -
13.01.2020 04:00:00 2,4 2,4 9 5 WSW 1029,2 6 -
13.01.2020 03:00:00 2,2 2,2 11 6 SW 1029,4 6 -
13.01.2020 02:00:00 2,1 2,1 16 9 WSW 1029,4 10 -
13.01.2020 01:00:00 2,1 2,1 9 5 W 1029,9 10 -
13.01.2020 00:00:00 2,0 2,0 11 6 W 1030,3 10 -
12.01.2020 23:00:00 1,6 1,6 8 4 SSW 1029,9 10 -
12.01.2020 22:00:00 1,4 1,4 9 5 SW 1030,1 10 -
12.01.2020 21:00:00 1,0 1,0 11 6 SSW 1030,4 10 -
12.01.2020 20:00:00 0,6 0,6 11 6 S 1030,4 10 -
12.01.2020 19:00:00 0,7 0,7 13 7 SSW 1030,4 10 -
12.01.2020 18:00:00 0,6 0,6 15 8 SW 1030,4 10 -
12.01.2020 17:00:00 0,6 0,6 16 9 WSW 1030,1 10 -
12.01.2020 16:00:00 0,9 0,9 13 7 WSW 1029,8 10 -
12.01.2020 15:00:00 1,3 1,3 15 8 WSW 1029,5 10 -
12.01.2020 14:00:00 1,2 1,2 24 13 SW 1029,5 10 -

tt = temperature
td = dewpoint
ff = wind speed
dd = wind direction
ppp = reduced air pressure
vv = visibility
rr = precipitation

Next stations